Location: Härggis
(46.9540°N, 8.4897°E)
Time: 20:32:01
(UTC+00:00)

SL-14 R/B - Pass Details

Date: 27 May 2022
Orbit: 517 x 551 km, 82.4° (Epoch: 02 July)

Event Time Altitude Azimuth Distance (km) Brightness Sun altitude
Exits shadow 00:54:19 27° 264° (W) 1,037 4.4 -18.7°
Maximum altitude 00:55:06 29° 287° (WNW) 981 4.5 -18.7°
Drops below altitude 10° 00:58:32 10° 349° (NNW) 1,769 6.7 -18.5°
Sets 01:00:53 0° 0° (N) 2,659 8.0 -18.3°
